Wind_Speed
7 8 8 9 10 9 8 9 8 7 8 8 7 7 8 8 7 7 8 12 15 15 16 18 20 20 20 21 21 22 23 23 25 24 22 22 23 23 23 22 22 22 22 21 20 20 19 18 17 15 15 14 14 13 12 11 11 12 12 12 12 12 11 11 11 11 11 11 12 12 11 11 10 10 10 10 10 11 11 12 13 14 15 16 17
9 9 10 11 9 9 9 10 9 8 9 8 7 7 8 9 10 9 9 10 12 14 15 16 18 20 19 19 20 22 22 19 20 21 20 21 22 22 22 22 21 20 21 20 19 19 19 19 18 17 16 15 14 14 13 13 13 13 14 14 14 13 13 13 12 12 13 13 13 13 13 13 12 11 11 10 10 10 10 11 11 12 13 14 14
10 10 10 10 8 7 7 8 8 8 8 8 7 8 9 10 11 10 9 9 10 12 14 15 16 18 18 19 19 19 20 19 19 19 18 20 20 20 20 20 19 19 19 20 20 20 19 19 19 18 17 15 14 14 14 14 14 15 15 15 15 15 15 14 14 13 14 14 14 15 15 15 14 13 12 12 11 11 11 11 11 11 12 12 13
10 8 8 7 7 6 5 6 6 6 7 8 8 9 9 10 10 10 9 10 10 11 13 14 14 16 16 17 17 18 22 23 20 16 14 16 18 17 17 17 17 17 17 18 19 20 20 19 19 18 17 16 15 15 15 16 17 17 17 17 16 16 16 16 15 15 15 15 15 16 16 16 16 16 15 14 13 13 12 12 12 12 12 12 12
9 8 7 6 4 5 4 4 5 5 6 8 9 9 9 10 10 11 10 10 10 10 13 14 15 15 14 15 15 17 20 18 12 8 8 12 15 15 15 15 15 15 15 16 18 18 19 19 19 18 18 17 17 18 18 18 18 18 18 18 18 18 17 17 17 17 17 17 17 17 17 17 18 18 17 17 16 15 15 14 14 14 13 13 13
7 6 7 4 2 4 4 4 4 4 6 9 10 9 9 10 10 11 10 10 10 10 12 13 14 15 15 15 14 13 15 12 8 7 7 10 11 12 12 12 12 12 13 14 15 16 17 18 18 19 18 18 19 19 19 19 19 19 19 19 19 19 19 18 18 18 18 18 18 18 18 18 18 18 18 18 17 17 16 16 16 16 16 15 15
6 5 6 3 2 5 5 3 4 4 6 8 9 9 9 9 11 11 10 9 9 10 11 11 12 15 17 17 13 11 13 11 7 7 8 9 9 10 10 11 10 10 11 11 12 13 15 17 18 18 18 18 19 19 18 18 18 19 19 19 19 19 19 19 19 19 18 18 18 18 18 18 18 18 18 18 18 17 17 16 16 17 17 17 17
6 6 6 1 1 3 3 3 5 5 6 8 8 9 8 9 11 12 11 10 9 10 11 11 13 14 13 14 12 11 12 9 6 9 9 9 9 9 9 11 10 8 8 8 9 10 12 14 16 17 17 17 18 18 17 18 18 18 18 18 18 19 19 19 19 19 19 18 18 18 18 18 18 18 18 19 19 19 18 17 16 16 16 17 17
3 5 4 1 2 3 3 3 5 5 6 7 8 8 7 8 10 12 13 11 10 12 12 12 14 14 11 11 11 10 11 9 8 9 9 9 8 8 8 9 8 7 7 7 7 8 9 11 12 14 15 16 17 17 17 17 17 18 18 18 18 18 19 19 19 19 19 19 18 18 18 17 17 18 18 18 19 19 19 18 17 17 16 16 16
1 1 2 2 3 3 2 1 3 4 5 6 7 7 7 8 9 11 12 10 11 13 12 13 15 16 10 9 10 11 11 10 10 9 9 9 9 8 9 8 7 6 7 7 7 7 8 9 10 10 11 13 14 16 16 17 17 17 18 18 18 18 19 19 19 19 19 19 19 19 19 18 17 17 17 18 18 18 18 18 18 17 17 16 16
3 4 3 3 2 3 2 1 2 4 5 6 7 7 7 8 9 10 9 8 10 11 11 13 15 15 9 8 9 11 11 11 11 11 11 11 10 9 9 7 5 5 6 7 7 7 7 8 8 9 10 11 12 13 14 15 16 16 17 17 17 17 18 18 19 19 19 19 19 20 19 19 19 18 17 18 18 19 19 19 18 18 17 16 16
6 6 5 3 2 2 2 1 2 4 4 5 7 8 8 9 10 10 9 9 9 9 10 11 11 13 8 8 8 11 10 10 11 12 12 11 10 10 9 6 5 6 7 8 7 7 8 9 9 9 10 11 11 12 13 13 14 15 16 16 16 16 16 17 17 17 18 18 18 19 19 19 19 19 19 18 18 19 20 19 19 19 18 17 16
8 6 6 4 2 1 2 1 1 2 3 5 7 9 10 11 11 12 11 10 10 9 9 9 10 10 6 8 9 10 10 10 11 12 12 12 12 11 10 8 8 8 8 8 7 8 9 10 10 10 10 11 11 12 12 13 14 15 15 16 16 15 15 16 16 16 17 17 17 17 18 18 18 19 20 20 19 19 20 20 20 20 20 19 18
10 8 8 6 4 2 0 1 1 1 3 6 7 8 9 11 11 12 12 11 10 10 8 8 9 9 5 6 8 10 10 10 11 11 12 12 11 9 8 8 9 9 8 7 6 7 9 9 9 10 10 11 11 11 12 13 13 14 15 16 16 16 16 16 16 17 17 18 18 17 18 18 18 19 20 20 20 20 20 20 20 21 20 20 20
10 9 9 8 6 4 2 1 2 2 4 5 6 6 8 9 10 11 12 12 10 10 9 8 9 9 6 5 7 9 9 9 10 10 10 9 8 8 6 6 7 8 8 7 6 6 7 8 7 8 9 9 9 9 10 10 11 12 13 15 15 16 16 17 17 18 18 18 18 18 18 18 19 20 21 21 21 21 21 20 20 21 21 20 20
10 9 9 8 6 3 2 2 2 3 5 7 7 7 7 8 10 10 12 12 10 10 10 9 9 9 8 6 6 7 7 9 9 9 8 7 7 8 4 3 5 5 5 6 6 6 6 6 6 6 6 7 7 7 8 9 9 10 11 12 13 14 15 16 18 18 19 19 19 20 19 19 20 21 22 22 22 22 22 21 21 21 21 21 20
9 9 8 8 7 5 2 1 2 3 5 7 8 8 8 7 8 9 10 10 9 9 9 8 8 9 9 7 6 6 5 7 8 8 8 8 9 8 4 4 4 3 4 6 7 7 6 5 5 5 6 6 6 6 7 8 9 10 10 11 11 12 13 14 15 16 17 18 19 19 20 20 21 21 23 23 23 23 23 22 22 22 22 21 21
8 8 8 8 8 7 4 2 2 3 4 5 7 8 7 6 7 8 8 8 8 8 8 9 9 8 8 8 7 7 5 5 7 8 9 10 10 8 6 5 5 4 3 5 6 5 5 5 5 6 6 6 6 6 7 8 9 10 11 11 11 11 11 11 11 12 13 13 15 16 17 18 20 21 22 23 24 24 24 24 24 24 24 22 21
9 8 8 8 7 7 6 4 3 3 3 5 7 8 7 6 7 8 8 9 9 9 9 10 10 9 8 9 9 8 7 6 6 8 9 10 10 8 6 4 5 4 3 4 6 5 5 5 5 6 6 7 7 8 9 10 10 10 11 11 11 11 11 10 10 10 10 10 11 12 14 15 16 17 19 20 22 23 24 25 24 24 24 22 22
10 9 9 9 8 7 6 5 4 3 2 5 7 8 8 8 9 10 11 10 10 10 9 9 9 9 9 10 10 8 8 9 8 9 9 10 10 8 7 5 5 5 4 4 6 6 6 6 6 7 7 7 8 9 9 10 11 11 11 11 11 11 11 11 10 10 10 9 10 10 11 12 13 13 14 15 16 18 19 21 22 23 23 22 23
11 10 8 8 8 8 7 6 5 4 2 6 6 6 9 10 11 13 13 12 11 11 10 9 8 7 8 10 11 9 9 10 11 11 10 10 10 9 8 7 6 6 5 6 6 7 7 6 5 6 7 6 7 8 9 9 10 11 11 11 10 10 9 9 9 9 9 10 10 10 10 10 11 11 11 12 13 14 15 16 17 19 20 21 23
13 12 9 8 8 8 7 6 6 5 2 6 6 6 8 9 11 12 12 12 12 10 10 11 10 8 8 10 10 9 9 11 13 12 10 9 9 8 8 8 6 6 6 6 6 6 7 6 4 4 5 5 5 6 7 7 8 8 9 9 8 8 7 8 8 9 9 9 9 9 9 9 8 8 9 9 10 10 11 12 12 14 16 17 20
15 13 9 7 8 8 7 6 5 5 3 5 7 6 6 7 9 10 11 12 12 10 11 13 12 9 9 10 8 8 9 10 11 11 10 9 9 8 8 8 6 6 5 5 5 4 4 3 3 2 3 4 4 4 5 6 6 7 7 7 8 7 7 8 8 9 9 9 9 9 9 9 8 8 8 8 9 10 11 11 11 12 13 13 14
14 12 7 6 8 8 8 6 5 4 3 5 6 6 6 7 8 9 9 9 10 10 11 11 10 8 8 9 8 9 10 9 9 11 11 10 8 7 7 6 4 4 3 3 2 1 1 2 2 2 3 4 5 5 5 6 6 7 7 7 7 8 8 8 8 9 9 9 9 9 10 10 9 8 8 8 9 11 11 12 12 12 12 12 11
13 8 5 5 7 8 8 6 5 4 2 4 6 6 7 7 6 7 7 8 10 11 11 10 9 9 9 8 7 8 8 9 8 9 11 10 7 5 5 5 4 3 3 1 1 2 3 4 4 4 4 4 4 5 5 6 6 6 6 7 7 7 8 8 9 9 9 10 10 10 10 10 10 9 9 9 10 10 11 11 12 12 12 12 12
11 6 4 5 6 8 8 6 5 4 2 4 5 6 7 6 6 5 6 9 10 10 11 10 9 10 9 9 8 7 7 9 9 9 8 8 7 4 2 2 2 2 1 1 4 5 5 5 5 6 6 6 6 6 6 5 5 6 6 6 7 7 8 8 9 9 9 10 10 10 10 10 10 9 9 9 10 10 11 11 12 12 12 12 11
7 5 4 4 5 6 7 6 5 4 3 4 4 4 5 6 5 5 6 8 9 10 10 9 9 10 10 10 10 9 9 9 10 10 8 9 10 7 4 2 5 6 2 1 5 5 5 6 6 6 6 6 6 6 5 5 5 5 6 6 7 7 7 8 8 9 9 10 10 10 10 10 10 10 9 9 10 10 10 11 11 12 12 12 12
6 5 4 4 5 5 5 5 5 4 3 3 3 3 4 6 5 5 5 6 7 9 9 8 9 10 10 11 10 9 8 8 9 10 10 12 13 9 2 4 8 8 5 3 3 4 4 7 6 6 6 5 6 5 4 4 4 4 4 4 4 5 6 6 7 7 8 9 9 10 10 10 10 10 10 10 10 10 11 11 11 11 11 11 12
7 5 4 3 4 4 4 4 4 4 3 3 3 3 4 5 5 5 6 6 6 7 8 8 9 10 10 9 9 9 9 9 8 8 8 11 14 13 11 8 8 5 3 4 3 4 4 5 5 5 4 4 3 2 2 2 2 2 3 3 4 5 6 6 6 7 7 8 8 9 9 10 10 11 11 11 11 11 11 12 12 12 12 12 12
7 6 4 3 2 3 3 3 2 2 2 3 3 3 4 4 5 6 7 6 7 7 8 8 8 9 9 9 9 9 10 10 9 8 8 8 12 13 11 10 11 5 2 5 5 3 2 3 3 3 2 1 1 1 1 1 2 3 3 4 5 6 6 6 6 7 8 9 9 10 10 10 10 10 11 11 11 11 12 12 13 13 13 14 14
6 5 3 2 2 2 2 1 1 1 0 1 2 2 4 5 5 6 6 7 8 8 9 9 9 9 9 9 10 10 11 11 10 10 10 9 9 9 8 11 12 7 5 4 3 2 1 2 3 2 2 1 1 1 2 3 4 4 4 5 6 6 7 8 9 10 11 11 11 11 11 12 12 12 12 11 11 12 12 12 13 13 14 14 15
5 3 2 2 2 2 2 2 2 2 2 2 2 2 3 4 5 6 7 8 8 8 9 9 9 9 9 9 10 11 12 12 11 10 9 9 9 8 8 10 10 6 3 2 1 1 2 3 3 3 3 3 3 2 3 4 5 6 7 8 9 9 10 10 10 11 12 13 13 13 13 13 13 13 13 13 13 13 13 14 14 15 15 15 16
4 3 2 2 2 3 3 3 4 4 4 3 3 3 3 4 5 6 7 7 7 8 8 8 8 9 10 10 11 11 12 12 12 11 10 8 8 8 8 9 9 6 5 4 4 5 5 5 4 5 6 6 6 6 6 8 9 10 10 11 12 12 11 11 12 12 12 13 13 13 13 13 13 13 14 14 14 14 15 15 15 16 16 17 17
4 3 3 3 3 3 3 3 4 4 4 4 4 4 4 5 5 5 5 6 7 7 7 8 9 9 10 10 10 9 9 8 8 7 7 7 7 8 8 8 7 6 7 8 7 6 6 7 7 8 9 10 11 10 9 10 12 14 15 15 15 16 15 15 15 14 14 14 14 15 15 15 14 14 15 15 15 15 15 16 16 16 16 17 18
5 3 4 5 4 3 3 3 4 3 4 4 4 4 5 6 5 5 5 6 7 8 8 9 9 9 9 8 7 6 5 4 4 3 3 4 3 3 3 3 4 5 7 10 10 8 8 9 11 11 10 11 13 13 13 13 13 14 15 16 15 16 17 17 17 16 15 15 15 16 17 18 18 18 18 18 19 18 18 17 17 17 18 18 18
5 3 4 6 5 4 4 4 3 3 3 4 4 5 6 6 6 6 6 7 7 7 7 7 6 6 6 5 4 3 3 3 3 2 3 6 6 5 6 6 6 7 8 10 12 12 12 12 14 14 12 12 14 15 15 15 15 14 15 15 16 17 18 19 20 20 19 18 18 17 18 20 21 20 20 21 22 22 22 20 20 20 19 19 20
5 4 4 6 6 5 5 5 5 4 4 4 5 6 6 6 7 6 6 6 5 5 4 4 3 3 2 3 3 3 4 4 5 4 5 8 8 8 10 10 9 9 10 10 11 12 13 15 15 15 13 13 14 14 14 13 13 14 15 17 18 19 20 21 22 23 24 23 22 20 19 20 21 22 21 21 21 23 24 23 23 23 22 22 22
5 5 5 6 8 7 7 8 7 6 6 7 7 7 7 7 7 6 6 5 5 5 4 4 5 5 5 5 5 6 7 7 8 7 8 10 10 10 11 13 12 10 9 10 11 12 13 15 16 15 13 13 13 15 16 16 17 17 17 19 20 21 22 23 23 24 25 26 26 25 23 22 22 23 23 23 23 23 24 24 24 25 25 25 25
5 6 6 7 9 10 10 10 10 9 9 10 9 9 10 10 9 9 9 8 8 9 9 9 9 9 10 11 11 11 12 11 11 11 11 12 12 12 12 15 15 11 9 11 14 15 14 12 14 16 16 16 16 18 19 19 21 22 22 22 22 23 24 24 25 25 26 27 28 28 28 27 26 26 26 26 26 26 26 26 26 26 26 27 27
6 6 8 9 10 11 12 12 13 13 13 13 13 13 13 13 13 12 12 12 12 13 13 13 14 13 15 17 16 16 16 15 15 15 15 15 15 15 15 16 17 14 12 14 16 16 14 12 13 15 17 18 20 21 22 21 22 23 24 23 23 23 24 24 25 27 28 28 28 29 30 31 31 30 29 29 30 29 29 28 28 27 27 28 29
7 7 9 10 11 12 14 15 15 15 15 16 16 16 17 17 16 16 16 16 17 17 17 18 18 18 20 22 21 19 19 20 19 20 20 19 19 19 17 16 17 16 15 16 15 14 12 11 13 15 17 19 21 22 23 23 23 23 24 25 24 25 25 25 24 26 28 29 29 29 29 31 33 32 31 31 32 32 32 32 30 29 28 29 29
9 8 9 11 12 13 15 16 18 18 18 18 18 18 19 19 20 20 20 20 21 21 21 21 22 24 25 24 23 23 23 24 24 23 23 23 23 22 21 18 16 16 16 15 15 13 12 12 14 15 17 19 22 23 23 23 23 24 25 27 27 27 27 27 25 25 28 30 31 29 28 30 33 34 32 32 32 33 34 34 34 32 31 31 30
11 11 12 13 14 15 16 18 20 20 20 20 21 21 21 22 22 23 23 24 24 25 25 25 27 29 29 28 27 27 27 27 27 26 25 25 24 24 24 20 16 15 15 13 13 13 13 14 16 16 17 20 22 23 22 22 23 25 26 27 28 29 29 30 29 27 28 31 33 32 29 28 32 34 32 31 32 33 34 35 35 35 34 34 33
12 14 15 16 16 17 19 20 22 22 21 21 22 22 22 24 24 25 26 27 27 28 29 30 31 33 32 31 31 30 29 29 29 28 26 25 25 26 24 20 16 14 13 13 13 14 15 16 17 18 18 19 22 22 22 23 24 26 27 27 28 30 30 31 32 30 30 32 35 36 33 29 31 33 33 32 32 32 33 34 35 36 36 35 35
15 16 17 17 17 18 19 21 24 26 24 23 23 23 23 25 26 27 28 29 30 31 32 33 35 35 33 31 30 29 30 29 29 29 28 27 28 27 23 20 15 13 13 14 14 15 16 17 19 19 18 18 21 22 22 23 25 25 26 27 28 30 31 32 33 33 32 33 35 37 37 34 33 34 33 32 31 31 32 32 33 34 35 35 35
16 17 17 18 19 19 19 20 24 27 27 26 26 24 24 25 27 28 29 31 33 33 34 37 39 36 32 29 29 30 30 29 28 29 29 29 28 25 22 21 17 15 15 15 15 16 17 18 19 19 18 18 20 22 22 23 24 26 27 28 28 29 31 32 33 33 33 34 36 38 38 37 37 37 36 33 32 31 31 31 32 32 33 33 33
18 19 20 20 21 21 21 22 25 27 27 27 26 25 25 27 29 30 31 33 34 35 37 37 37 35 32 31 31 32 33 32 31 32 31 29 24 21 21 20 19 16 14 14 15 16 17 18 19 19 19 19 20 22 23 23 25 26 27 27 28 29 32 33 33 34 35 35 36 39 40 40 39 38 37 35 33 32 30 30 31 31 32 32 32
22 22 23 23 23 24 24 25 27 27 27 26 25 25 26 28 30 31 32 33 35 38 38 35 34 35 34 33 32 33 33 33 33 33 31 25 21 22 21 19 16 14 13 14 16 16 17 18 19 19 19 20 21 22 23 24 25 26 27 28 29 32 34 36 36 36 37 37 37 39 42 42 39 38 37 35 33 32 31 30 30 31 31 32 32
24 26 27 26 26 26 26 27 28 29 28 27 25 25 25 27 28 30 31 31 34 36 36 34 33 33 31 30 31 32 32 31 31 30 26 23 23 23 21 18 15 13 13 15 16 16 17 18 19 19 20 20 20 21 22 24 25 26 28 29 31 33 36 37 38 38 38 37 37 39 41 41 39 38 37 35 33 32 31 31 31 32 33 33 34
28 29 30 31 31 30 30 29 29 30 30 29 27 26 25 25 27 28 28 29 31 35 35 34 32 30 28 28 31 31 29 29 31 30 26 24 24 21 19 17 16 14 14 15 16 16 17 18 19 19 20 20 20 21 23 25 26 28 30 32 33 35 37 38 39 40 39 38 38 39 40 39 38 37 37 36 34 32 32 32 33 34 35 36 37
32 33 33 33 33 34 34 33 31 30 31 30 29 28 26 25 26 26 27 28 32 35 35 33 31 29 28 29 30 29 28 28 29 26 23 23 21 17 16 16 15 14 13 14 16 17 18 19 19 20 20 21 21 22 24 26 28 30 31 32 34 35 37 38 38 39 38 37 36 37 37 37 36 36 37 38 37 34 33 34 36 36 37 38 39
Wind_Direction
214 222 230 231 233 234 232 244 244 235 231 218 210 207 208 212 205 208 215 217 212 204 204 205 211 218 224 226 226 229 230 234 242 242 242 245 243 243 244 245 245 246 246 246 246 246 246 248 250 251 252 253 255 257 260 262 263 263 264 265 267 269 274 278 282 288 293 297 302 306 308 313 318 324 331 339 346 352 357 0 4 8 11 14 17
225 231 232 227 228 234 230 234 240 236 229 215 208 209 207 204 207 214 217 226 226 214 207 205 209 216 222 227 227 229 230 230 236 234 235 242 244 244 245 246 246 246 247 246 245 244 243 244 247 248 250 251 252 253 254 257 259 261 262 264 265 266 269 273 277 281 286 289 293 297 299 301 303 307 313 318 326 333 339 345 349 354 358 3 6
235 232 230 226 222 232 233 231 234 233 229 222 217 215 211 208 212 219 218 225 231 221 214 206 205 213 220 225 226 230 234 231 229 228 229 236 243 245 245 246 246 246 247 246 243 243 242 241 244 246 247 249 250 251 252 252 254 257 260 263 264 266 267 269 271 274 277 281 285 289 292 293 295 296 299 303 308 314 320 326 332 337 343 348 352
240 236 239 235 223 229 237 235 234 229 226 225 220 214 213 213 215 216 215 223 227 222 218 205 197 205 215 222 222 226 235 234 230 233 234 237 243 248 250 250 250 248 247 246 243 241 241 240 241 243 245 246 247 250 251 250 250 252 255 259 262 265 267 268 270 271 273 274 277 280 284 288 290 292 294 295 297 300 304 309 314 320 325 331 336
248 249 253 249 232 233 236 237 241 231 221 219 216 212 211 214 214 210 213 225 226 221 219 207 194 194 206 220 216 218 234 237 227 223 225 230 237 246 253 254 252 251 248 246 243 240 239 239 240 241 243 244 245 246 247 248 248 250 253 255 258 262 265 267 268 269 270 271 272 275 278 282 286 289 293 294 295 295 296 299 302 306 310 315 320
252 257 261 261 264 256 248 236 241 235 217 210 209 211 210 208 205 202 211 220 221 222 222 216 203 192 198 213 210 209 229 235 214 196 204 216 227 239 249 252 251 250 247 244 242 240 238 238 239 240 241 243 244 245 247 249 251 253 254 256 257 259 262 264 266 267 267 268 270 272 273 276 280 284 288 292 295 295 296 296 297 299 301 304 308
245 254 260 271 346 285 267 237 225 218 210 209 210 214 210 205 203 205 210 212 218 224 223 223 211 199 200 203 197 200 220 227 203 192 209 217 220 227 237 244 245 244 243 241 240 239 236 237 239 241 242 244 246 249 251 253 254 256 257 258 259 260 262 263 265 268 269 269 269 270 271 273 276 279 283 287 290 293 295 296 296 297 298 300 302
235 243 255 272 30 269 245 202 201 196 207 210 208 212 209 209 211 213 215 212 217 218 220 227 218 215 211 194 184 196 218 231 210 192 201 211 213 219 231 237 236 236 243 244 240 241 240 241 242 243 245 247 251 254 255 256 256 257 258 260 261 263 265 266 266 268 270 271 271 271 272 273 275 278 280 282 285 287 290 292 294 294 295 297 298
232 234 244 122 108 209 210 188 195 190 204 203 198 203 205 211 215 219 216 208 211 211 218 229 225 232 227 190 185 197 209 225 223 207 202 211 218 223 236 247 245 239 245 249 243 242 244 244 244 246 249 251 253 254 256 257 259 260 261 262 263 264 265 267 268 268 270 272 274 274 275 275 275 276 278 280 282 284 286 287 288 289 291 292 294
350 188 156 113 129 200 217 170 185 187 197 196 196 202 203 208 211 219 215 205 210 208 215 233 235 238 226 188 195 200 204 219 225 229 225 220 226 232 238 249 253 248 249 251 246 246 249 246 246 250 252 253 255 256 257 259 262 263 264 265 265 265 266 268 270 271 271 272 273 274 275 277 277 276 276 277 279 280 282 283 285 286 286 287 289
44 62 88 115 150 221 228 149 167 183 194 197 199 201 206 213 211 218 216 204 207 203 213 234 242 241 217 173 195 204 206 219 226 239 242 231 230 236 239 242 244 251 253 249 250 256 258 256 255 258 259 258 259 261 261 263 264 265 266 267 267 267 268 270 271 272 273 272 272 273 273 276 278 279 278 277 276 277 277 278 280 282 283 285 286
55 53 62 98 162 238 252 216 187 187 202 209 208 206 211 216 214 217 215 203 203 204 214 228 239 241 206 150 189 213 208 213 221 231 240 241 236 231 233 245 249 243 244 251 259 264 265 266 268 271 268 266 268 269 267 265 265 265 266 267 266 268 269 270 272 273 274 275 275 275 275 276 278 279 279 276 275 275 276 277 277 279 281 283 285
53 48 47 61 105 236 267 246 190 201 228 228 221 217 215 216 214 214 213 206 208 211 215 225 232 234 203 149 181 217 212 209 221 228 235 240 236 225 216 227 241 237 237 248 254 253 258 263 265 268 268 269 273 275 273 271 269 268 267 266 265 267 269 271 273 273 275 276 276 276 277 279 280 280 279 277 275 273 275 277 278 279 280 282 284
46 45 43 49 76 107 325 276 222 223 238 233 227 223 220 219 217 216 214 209 214 220 219 227 236 240 228 167 175 207 215 213 220 229 238 241 242 241 217 212 232 240 239 239 238 241 248 255 257 259 261 266 271 274 277 276 274 272 270 268 267 267 268 272 275 276 276 276 276 276 276 278 280 280 279 279 278 276 275 276 278 280 281 282 283
41 40 39 41 61 89 105 198 225 226 230 229 225 224 222 221 218 219 222 218 217 226 227 222 230 240 239 207 186 199 216 223 219 222 238 249 255 259 238 203 214 226 231 231 231 236 239 239 237 239 249 259 266 271 275 276 276 277 275 274 274 271 269 271 274 276 276 276 276 276 276 276 277 277 278 280 281 280 279 278 279 280 281 282 282
34 32 31 29 37 62 120 159 189 203 217 221 222 224 222 222 222 219 226 228 220 226 235 225 224 233 233 222 204 199 215 227 224 220 230 239 242 247 244 184 192 204 208 210 210 214 219 221 220 227 241 251 258 264 270 275 277 280 281 281 281 279 276 275 275 277 277 276 275 276 278 278 277 278 280 281 282 282 281 280 280 280 281 281 282
24 21 19 17 18 20 24 204 209 196 207 218 226 232 229 226 229 225 226 232 225 226 237 231 223 230 232 225 211 216 226 221 223 223 217 220 225 225 208 184 198 193 179 184 184 188 201 217 231 241 250 254 262 269 272 278 281 284 287 289 289 288 287 285 284 283 281 280 279 278 279 279 278 278 280 281 282 281 281 281 281 280 279 279 281
12 8 7 5 5 5 2 332 263 233 219 222 233 245 242 235 243 246 242 241 236 225 222 223 224 229 236 234 223 232 236 212 220 220 207 208 212 207 197 198 216 221 206 215 216 207 214 233 245 255 265 272 279 283 281 283 286 290 292 295 298 299 300 300 298 295 292 291 289 286 283 280 279 279 279 281 281 281 282 281 281 280 279 278 279
360 357 356 351 352 355 354 351 319 267 236 218 225 240 244 238 241 248 247 247 245 232 218 219 226 230 239 241 230 232 236 222 217 216 210 209 207 208 212 222 244 249 242 250 259 263 263 269 278 284 290 295 296 294 292 292 293 295 297 301 305 308 309 309 308 305 302 301 297 293 291 287 284 283 282 283 284 286 287 286 284 282 280 279 277
351 347 346 341 341 345 346 345 331 303 239 200 209 224 231 230 227 231 235 236 241 241 231 227 233 237 242 241 229 224 233 232 222 217 217 214 215 222 226 228 241 239 231 239 259 276 283 290 297 297 298 297 297 296 295 297 298 300 303 306 308 310 310 309 308 308 308 309 306 304 302 299 296 293 291 293 294 295 294 292 288 284 281 279 276
344 338 333 334 332 332 338 335 331 333 226 192 193 212 222 225 225 229 232 231 236 242 241 239 240 240 244 243 233 225 227 228 224 221 217 214 219 225 224 224 222 218 231 246 258 272 280 289 294 292 294 291 290 292 291 292 295 299 304 309 313 313 312 311 311 313 316 318 319 320 319 315 308 302 302 304 303 301 298 295 292 289 285 280 277
339 333 320 322 325 322 328 326 330 339 259 201 193 205 219 227 231 234 232 231 234 239 243 241 236 233 237 240 237 229 222 220 219 218 212 206 206 206 209 214 217 224 237 246 254 268 281 296 302 290 291 295 295 294 294 295 298 306 315 322 328 328 325 323 323 324 325 326 329 334 337 336 327 318 321 324 321 318 314 309 305 298 295 290 284
335 332 313 310 321 316 320 323 325 330 293 225 211 216 225 228 232 237 232 228 228 234 241 239 235 232 230 234 229 210 209 212 211 205 193 187 188 191 197 200 209 225 234 242 251 261 276 302 327 326 316 320 320 315 313 314 318 325 331 337 341 342 341 340 341 341 343 344 345 350 352 352 348 338 337 338 337 338 334 331 327 315 308 302 293
328 329 312 309 321 317 319 322 316 319 294 243 226 220 222 223 227 236 233 222 219 224 228 227 225 216 210 217 201 180 187 195 193 187 179 178 182 190 192 186 196 222 232 258 279 293 326 346 351 355 352 343 335 333 336 337 340 344 349 354 356 358 359 357 357 358 357 358 357 357 356 356 355 349 340 335 332 333 333 336 338 334 327 321 312
318 320 313 321 328 323 323 320 310 316 285 234 223 212 214 216 218 229 227 216 212 214 214 212 206 195 193 200 184 161 160 166 170 172 172 173 173 188 189 163 167 185 177 167 22 12 13 19 18 24 35 36 27 18 15 12 11 12 12 11 10 8 5 1 360 359 357 356 355 354 353 352 353 350 343 335 330 329 330 333 337 337 335 330 324
308 304 311 326 334 327 322 317 308 302 261 225 221 213 208 203 205 217 216 210 206 204 204 201 196 192 190 193 186 167 157 158 152 146 159 161 150 164 212 171 152 97 99 91 57 51 45 47 47 46 48 53 54 46 38 32 25 23 20 16 11 5 3 360 357 357 355 354 352 351 351 349 348 346 342 336 331 329 330 332 332 331 329 328 325
299 297 311 324 330 327 319 314 306 290 258 234 229 215 199 194 199 210 210 210 206 205 207 202 194 194 189 188 189 185 182 180 165 151 143 132 142 177 231 192 107 84 80 10 51 63 64 62 62 55 48 47 49 46 43 38 26 21 18 15 10 2 1 359 357 355 353 352 350 347 346 346 345 343 341 338 334 333 332 331 329 326 324 322 319
299 293 302 315 320 320 315 310 300 287 274 251 231 204 194 194 199 209 214 212 205 203 206 201 197 196 190 187 189 187 189 193 185 172 157 147 160 178 150 114 126 130 190 239 51 69 75 70 66 58 51 45 43 42 43 44 42 36 25 14 3 359 2 358 354 353 351 348 345 343 340 338 337 336 336 335 333 332 331 329 328 325 323 321 318
296 288 287 299 307 309 306 302 293 285 280 264 244 215 202 201 198 202 206 204 198 193 190 189 191 188 183 181 181 180 178 176 178 178 169 167 172 154 114 127 165 160 217 216 113 80 67 69 66 57 48 35 30 32 42 47 52 44 26 11 5 5 5 357 352 352 348 345 340 337 335 330 328 327 326 326 325 325 325 325 325 324 323 321 318
288 285 277 271 278 289 288 282 278 273 275 273 265 236 214 210 201 198 203 203 197 191 185 184 182 177 172 169 167 167 163 160 160 157 153 160 171 160 145 175 195 185 183 176 136 93 44 38 39 37 25 360 342 330 356 7 15 24 16 11 9 2 356 352 351 349 346 346 342 337 334 329 326 323 320 318 316 315 315 315 317 318 319 318 317
284 282 263 245 244 238 240 243 220 181 206 272 271 242 218 212 205 199 198 200 198 194 188 183 178 173 169 165 162 159 154 152 150 149 148 150 161 163 160 180 191 191 184 168 132 103 8 343 342 344 329 318 323 341 1 357 356 359 354 352 347 341 343 345 346 342 337 337 335 334 332 329 328 324 321 318 315 312 310 309 308 308 309 310 309
281 272 234 223 221 196 184 184 164 145 147 166 196 214 210 203 200 196 194 197 196 190 185 181 174 165 158 153 150 147 142 140 139 140 141 141 145 145 146 166 185 202 201 167 181 237 259 285 296 311 309 306 312 325 336 331 330 332 333 332 329 330 334 335 333 328 324 324 324 325 325 324 323 322 320 319 316 315 313 310 309 307 305 304 303
284 264 210 201 205 187 176 174 158 144 148 158 165 179 183 182 186 191 192 191 185 179 176 167 155 147 143 138 136 135 136 138 139 139 140 141 152 161 161 169 188 215 239 245 249 252 260 272 283 289 290 295 298 303 312 315 317 320 320 320 320 318 318 319 321 321 319 319 318 317 316 315 315 315 314 314 312 312 310 308 307 305 304 303 302
290 259 202 195 196 184 180 175 160 150 151 155 158 169 170 168 174 182 185 183 176 169 158 146 139 134 131 128 125 126 129 132 130 133 150 169 179 177 174 181 201 230 259 267 259 252 262 277 285 286 290 298 299 301 307 310 316 320 320 323 324 320 317 319 322 323 323 322 319 317 315 312 310 309 307 306 305 304 303 301 300 298 296 296 295
292 263 202 196 195 186 187 182 168 157 153 155 159 165 166 162 161 161 163 163 158 153 148 144 140 134 131 127 122 124 125 124 121 126 187 231 234 202 192 207 230 253 274 283 286 287 290 292 291 290 293 296 298 302 304 306 312 317 318 322 324 321 322 323 322 322 323 323 322 321 318 315 314 313 311 309 307 305 303 301 298 296 294 292 289
295 274 215 204 204 200 200 197 186 176 170 172 175 176 174 169 163 160 164 164 161 161 158 155 151 143 142 138 134 148 155 165 188 185 231 264 276 285 280 267 261 263 269 281 292 296 297 296 295 298 299 294 295 301 304 309 314 317 321 327 329 328 328 327 325 322 320 319 320 318 316 315 314 313 313 312 310 308 307 306 302 299 297 293 289
301 289 245 219 215 214 215 215 208 196 195 200 201 196 193 190 185 185 191 190 188 191 186 186 191 182 185 189 198 222 222 227 235 221 228 253 266 279 283 277 271 271 269 269 277 286 291 295 298 302 306 305 309 314 317 321 321 321 328 334 333 330 328 326 325 323 320 318 316 314 312 311 310 310 309 308 307 305 305 306 304 302 300 296 292
302 292 269 238 227 224 225 226 221 214 213 217 219 220 218 217 219 221 228 234 241 250 258 262 264 269 271 268 266 267 265 261 263 258 253 262 269 278 285 284 282 282 274 262 264 275 285 292 296 301 304 306 314 320 322 327 327 323 324 328 328 326 324 324 323 321 319 318 316 315 313 310 308 306 306 305 304 302 302 302 301 300 300 297 294
297 286 274 254 238 231 232 234 232 228 226 225 227 230 233 236 239 243 249 256 262 268 271 273 276 280 282 280 276 273 273 274 277 277 272 271 274 279 284 285 285 287 280 271 275 280 284 290 297 303 307 308 312 315 318 324 327 324 324 326 327 324 322 321 319 317 316 315 314 315 315 313 311 308 307 307 305 303 302 300 299 298 296 294 293
289 278 272 263 251 242 239 239 240 237 235 234 233 235 238 243 246 250 254 257 260 265 268 269 273 276 277 277 276 277 281 283 282 279 274 270 270 275 279 280 282 283 278 277 281 285 289 293 297 302 307 309 311 312 314 319 323 323 323 323 322 318 316 316 316 315 313 312 312 313 313 312 310 309 309 307 306 304 302 300 299 298 296 293 292
279 268 266 266 263 255 247 245 247 247 244 244 243 242 243 244 248 252 255 256 259 261 263 266 269 270 272 275 280 284 285 285 282 276 271 268 268 271 274 274 276 275 272 274 276 278 283 288 292 298 303 305 307 308 312 317 321 321 318 317 317 315 314 315 316 315 313 312 311 311 313 312 309 308 309 308 307 305 304 302 301 299 296 294 292
281 282 280 274 269 262 255 251 251 251 251 250 250 250 250 249 250 251 254 256 258 260 261 263 266 268 270 274 279 281 280 281 282 278 274 270 269 271 270 266 266 264 263 266 268 271 280 286 290 295 298 299 301 304 311 316 317 315 314 315 317 316 316 317 318 318 316 313 312 312 314 312 308 307 308 308 307 305 304 303 302 301 298 296 294
288 292 288 283 277 272 266 259 254 253 253 252 250 250 251 253 253 254 255 255 257 260 261 262 264 266 269 272 274 274 276 279 280 278 276 273 272 273 268 260 256 255 253 256 263 272 283 285 287 290 292 294 298 303 310 313 311 311 313 316 317 318 318 318 319 321 319 316 314 314 315 313 307 306 307 307 306 305 304 303 303 302 301 299 297
285 283 279 278 276 272 268 266 263 263 261 260 259 254 250 251 252 254 257 258 259 260 262 263 264 265 267 269 270 272 274 275 274 274 273 273 279 282 270 252 244 245 246 252 263 273 279 281 285 288 291 295 299 304 308 310 310 311 314 316 317 317 318 318 318 321 320 317 314 314 316 315 309 307 308 308 305 303 302 300 299 299 298 297 296
280 280 278 275 271 267 266 266 266 267 267 265 262 257 254 255 257 259 260 261 261 263 265 265 264 263 264 267 271 273 272 269 269 271 271 275 284 282 259 235 230 236 244 254 264 273 279 283 286 290 293 297 299 302 305 306 308 310 312 314 315 316 317 317 318 319 319 316 315 315 316 316 312 310 310 308 305 302 299 297 295 294 294 294 294
282 284 284 282 277 274 272 268 266 266 267 265 262 260 260 262 264 265 265 265 265 266 266 264 263 264 265 267 271 274 273 270 269 269 270 278 285 273 244 231 231 235 244 257 267 274 279 283 287 291 296 297 297 300 304 306 308 310 312 314 315 315 316 317 318 318 318 317 316 315 315 315 314 312 311 309 306 301 298 296 294 293 293 293 293
284 286 287 287 284 282 277 271 268 266 264 262 261 262 262 262 264 265 266 268 268 267 267 267 270 272 270 270 274 277 276 275 274 274 276 279 276 259 245 243 243 243 254 265 268 273 278 283 288 292 296 297 298 301 305 307 309 312 314 315 315 315 315 316 317 318 318 318 317 315 315 315 315 312 310 308 305 302 299 297 295 294 293 293 292
288 288 288 288 286 284 280 276 274 271 266 262 261 261 260 260 262 264 265 266 266 267 270 273 275 274 270 272 278 278 276 275 275 277 276 269 254 246 248 250 247 249 258 261 265 273 280 285 289 293 297 299 300 303 306 308 311 313 313 313 313 313 313 315 316 317 318 318 316 314 314 314 312 310 308 306 303 301 301 299 296 294 292 291 289
287 289 289 289 287 285 283 281 279 276 273 270 267 263 259 259 261 263 263 263 264 266 268 271 273 273 270 272 273 272 272 274 273 273 267 250 238 240 245 247 248 251 255 261 270 280 284 288 293 296 298 300 302 305 308 310 312 312 311 310 311 312 313 314 316 317 317 316 314 312 311 310 309 308 306 304 302 301 301 299 297 295 293 291 291
281 284 285 286 286 285 284 283 281 279 278 275 272 268 262 259 260 260 259 259 261 263 266 268 269 269 268 268 267 267 268 267 268 269 261 241 233 235 238 243 250 253 257 269 278 284 289 293 296 297 299 301 303 305 307 309 309 309 309 311 313 313 314 315 316 316 316 314 312 311 309 307 307 306 304 303 302 301 301 299 297 296 295 295 294
275 276 277 278 279 281 281 281 280 278 276 275 273 272 269 264 260 258 257 258 259 261 263 264 264 265 265 265 263 263 262 261 262 263 253 237 231 234 239 245 252 255 263 275 282 287 293 296 297 298 299 300 302 304 305 306 306 307 308 310 311 311 311 312 312 312 311 309 308 307 304 303 304 304 303 303 302 301 301 299 298 299 299 297 296
Height
3149 3149 3150 3150 3151 3151 3152 3152 3152 3154 3155 3156 3156 3155 3155 3155 3156 3156 3157 3157 3158 3158 3159 3160 3161 3162 3163 3164 3165 3164 3162 3164 3167 3169 3171 3171 3172 3172 3172 3173 3174 3175 3176 3177 3178 3179 3179 3180 3180 3181 3182 3182 3183 3183 3184 3184 3185 3185 3185 3186 3186 3186 3187 3187 3187 3188 3188 3188 3188 3189 3189 3189 3189 3189 3189 3189 3189 3188 3188 3188 3188 3187 3187 3187 3186
3148 3148 3149 3149 3150 3150 3151 3151 3152 3153 3154 3154 3154 3154 3153 3154 3154 3155 3156 3157 3158 3158 3158 3158 3159 3161 3161 3162 3163 3160 3159 3163 3166 3167 3169 3169 3170 3171 3172 3172 3173 3174 3175 3176 3177 3178 3178 3178 3179 3180 3180 3181 3182 3182 3183 3183 3184 3184 3184 3185 3185 3186 3186 3187 3187 3187 3188 3188 3188 3188 3188 3188 3188 3188 3188 3188 3188 3188 3188 3188 3188 3188 3187 3187 3187
3147 3148 3148 3149 3150 3150 3150 3151 3151 3152 3153 3153 3153 3152 3153 3153 3154 3155 3156 3157 3157 3158 3157 3157 3158 3160 3161 3161 3161 3160 3158 3161 3163 3165 3168 3169 3170 3170 3171 3171 3172 3173 3174 3174 3175 3176 3176 3177 3177 3178 3179 3180 3180 3181 3182 3182 3182 3183 3183 3183 3184 3185 3185 3186 3186 3187 3187 3187 3187 3187 3187 3187 3187 3187 3188 3188 3188 3188 3188 3188 3188 3188 3187 3187 3187
3146 3147 3148 3149 3150 3150 3150 3151 3151 3151 3151 3152 3151 3151 3152 3153 3153 3154 3155 3156 3156 3157 3157 3157 3158 3159 3159 3159 3160 3161 3157 3156 3161 3167 3170 3170 3169 3169 3170 3171 3171 3172 3172 3173 3173 3174 3175 3175 3176 3176 3177 3178 3179 3179 3180 3180 3181 3181 3182 3182 3183 3184 3184 3185 3185 3185 3186 3186 3186 3186 3186 3186 3186 3187 3187 3187 3187 3188 3188 3188 3187 3187 3187 3187 3187
3146 3146 3146 3148 3150 3150 3150 3150 3150 3150 3150 3150 3150 3150 3151 3152 3153 3154 3155 3155 3155 3156 3157 3157 3157 3157 3158 3157 3157 3158 3157 3157 3163 3168 3169 3168 3168 3168 3169 3170 3170 3170 3171 3171 3172 3172 3173 3174 3174 3175 3175 3176 3177 3177 3178 3178 3179 3180 3181 3181 3182 3182 3183 3183 3184 3184 3184 3184 3185 3185 3185 3185 3185 3186 3186 3186 3187 3187 3187 3187 3187 3187 3186 3186 3186
3145 3145 3145 3148 3150 3148 3148 3148 3149 3149 3149 3149 3149 3149 3150 3151 3153 3154 3154 3155 3155 3156 3157 3157 3157 3157 3156 3155 3155 3157 3156 3158 3163 3166 3166 3166 3166 3167 3168 3168 3168 3168 3169 3169 3170 3171 3171 3172 3173 3173 3174 3175 3175 3176 3176 3177 3178 3179 3179 3180 3180 3181 3181 3181 3182 3182 3182 3183 3183 3183 3184 3184 3184 3185 3185 3185 3185 3186 3186 3186 3186 3186 3186 3186 3186
3144 3144 3144 3146 3148 3146 3147 3147 3148 3148 3148 3148 3148 3149 3150 3151 3152 3153 3154 3154 3155 3156 3157 3158 3158 3158 3156 3154 3156 3158 3156 3157 3161 3164 3164 3164 3165 3165 3166 3166 3166 3166 3168 3168 3169 3169 3170 3171 3172 3172 3173 3173 3174 3174 3175 3176 3176 3177 3178 3178 3179 3179 3179 3180 3180 3180 3181 3181 3182 3182 3182 3183 3183 3183 3184 3184 3184 3184 3184 3184 3184 3185 3185 3185 3185
3143 3143 3144 3146 3147 3146 3146 3147 3147 3147 3147 3148 3148 3149 3150 3151 3151 3152 3153 3154 3154 3156 3157 3158 3158 3157 3157 3157 3158 3159 3157 3157 3160 3163 3163 3163 3163 3163 3164 3164 3164 3165 3167 3168 3168 3169 3169 3170 3170 3171 3172 3172 3173 3173 3174 3174 3175 3175 3176 3176 3177 3177 3178 3178 3179 3179 3179 3179 3180 3180 3181 3181 3182 3182 3182 3182 3182 3182 3182 3182 3183 3183 3183 3183 3183
3143 3143 3143 3146 3147 3145 3145 3146 3146 3146 3147 3147 3148 3148 3149 3150 3151 3151 3152 3154 3154 3155 3157 3157 3158 3158 3159 3161 3161 3161 3159 3159 3160 3162 3163 3163 3163 3163 3163 3163 3163 3165 3167 3167 3168 3168 3168 3169 3169 3170 3171 3171 3172 3172 3173 3173 3173 3174 3174 3175 3175 3176 3176 3176 3177 3177 3178 3178 3178 3179 3179 3180 3180 3180 3181 3181 3181 3181 3181 3181 3181 3181 3181 3181 3181
3142 3142 3143 3145 3146 3144 3144 3145 3145 3146 3146 3147 3147 3148 3149 3150 3150 3151 3152 3153 3154 3154 3156 3157 3158 3160 3161 3162 3162 3161 3160 3160 3160 3161 3162 3163 3163 3164 3164 3164 3164 3165 3166 3166 3167 3167 3167 3168 3169 3169 3170 3170 3170 3171 3171 3171 3172 3172 3173 3173 3174 3174 3174 3175 3175 3176 3176 3176 3176 3177 3177 3178 3178 3179 3179 3179 3179 3179 3179 3179 3179 3179 3179 3179 3179
3142 3142 3142 3144 3144 3143 3144 3145 3145 3146 3146 3146 3146 3147 3147 3149 3150 3150 3151 3152 3153 3154 3155 3156 3158 3159 3161 3162 3162 3161 3160 3161 3161 3161 3160 3161 3163 3163 3163 3164 3166 3166 3165 3165 3166 3166 3167 3167 3168 3169 3169 3169 3169 3170 3170 3170 3171 3171 3171 3172 3172 3172 3173 3173 3173 3174 3174 3174 3174 3175 3175 3176 3176 3177 3177 3177 3177 3177 3177 3177 3177 3177 3177 3177 3178
3142 3142 3142 3143 3144 3143 3143 3144 3145 3145 3146 3146 3146 3146 3147 3148 3149 3149 3150 3151 3152 3153 3154 3155 3157 3158 3160 3162 3161 3159 3160 3160 3160 3160 3159 3160 3162 3163 3163 3164 3165 3165 3165 3165 3165 3166 3166 3166 3167 3167 3167 3167 3168 3169 3169 3169 3169 3170 3170 3170 3170 3171 3171 3172 3172 3172 3172 3172 3173 3173 3174 3174 3175 3175 3175 3175 3175 3175 3175 3175 3175 3175 3175 3176 3176
3142 3142 3142 3143 3143 3143 3143 3144 3145 3145 3145 3145 3145 3146 3147 3147 3148 3149 3149 3150 3151 3152 3153 3154 3155 3156 3158 3161 3160 3158 3159 3159 3159 3159 3158 3158 3159 3161 3164 3165 3164 3164 3165 3165 3165 3165 3165 3166 3166 3166 3166 3166 3167 3167 3168 3168 3168 3168 3169 3169 3169 3169 3169 3170 3170 3171 3171 3171 3171 3172 3172 3172 3173 3173 3173 3173 3173 3173 3173 3173 3173 3174 3174 3174 3174
3143 3142 3142 3143 3143 3143 3143 3143 3144 3144 3144 3144 3144 3145 3146 3147 3147 3148 3148 3149 3150 3151 3152 3153 3153 3154 3155 3158 3159 3157 3157 3158 3159 3158 3157 3157 3157 3159 3163 3165 3164 3163 3163 3164 3165 3165 3165 3165 3165 3165 3165 3165 3166 3166 3167 3167 3167 3167 3167 3168 3168 3168 3168 3168 3169 3169 3169 3170 3170 3170 3170 3170 3171 3171 3171 3171 3171 3171 3171 3171 3172 3172 3172 3172 3172
3144 3143 3142 3142 3143 3143 3142 3143 3143 3144 3143 3143 3143 3144 3145 3146 3147 3147 3147 3149 3150 3150 3151 3152 3152 3152 3153 3155 3157 3157 3156 3157 3158 3158 3157 3159 3159 3159 3161 3163 3164 3163 3162 3163 3164 3164 3164 3165 3164 3164 3164 3165 3166 3166 3166 3166 3166 3166 3166 3166 3166 3167 3167 3167 3167 3168 3168 3168 3168 3168 3169 3169 3169 3169 3168 3168 3169 3169 3169 3170 3170 3170 3171 3170 3170
3144 3143 3142 3142 3142 3141 3141 3142 3142 3142 3143 3143 3143 3143 3144 3145 3146 3146 3147 3148 3149 3149 3150 3151 3151 3151 3153 3154 3155 3156 3156 3156 3157 3158 3158 3159 3159 3158 3160 3161 3162 3162 3162 3163 3164 3164 3164 3163 3164 3164 3164 3165 3165 3166 3165 3165 3165 3165 3165 3165 3165 3165 3165 3165 3166 3166 3166 3166 3166 3166 3167 3167 3167 3167 3166 3166 3167 3167 3167 3168 3168 3169 3169 3169 3168
3144 3143 3142 3141 3141 3140 3140 3140 3140 3140 3141 3141 3141 3142 3142 3143 3144 3145 3145 3146 3148 3148 3149 3149 3150 3151 3152 3153 3154 3155 3156 3156 3157 3157 3158 3159 3158 3158 3160 3161 3161 3161 3162 3163 3163 3164 3163 3163 3163 3163 3163 3164 3164 3165 3165 3165 3164 3164 3164 3164 3164 3164 3164 3164 3164 3164 3164 3164 3164 3164 3165 3165 3165 3165 3164 3164 3164 3165 3165 3166 3166 3166 3166 3167 3167
3144 3143 3142 3141 3140 3139 3139 3138 3138 3138 3139 3139 3139 3139 3140 3141 3142 3143 3144 3144 3146 3148 3148 3148 3149 3150 3151 3152 3153 3154 3155 3156 3156 3157 3157 3158 3158 3158 3159 3160 3160 3160 3161 3161 3162 3163 3164 3163 3163 3163 3163 3163 3164 3164 3164 3164 3163 3163 3163 3163 3163 3163 3163 3163 3163 3163 3162 3162 3162 3162 3162 3162 3162 3162 3162 3162 3162 3162 3162 3163 3163 3163 3163 3164 3165
3143 3142 3142 3140 3139 3138 3137 3137 3137 3137 3137 3138 3137 3137 3139 3140 3141 3141 3142 3142 3144 3146 3147 3148 3148 3149 3150 3151 3151 3152 3153 3155 3155 3156 3156 3157 3158 3158 3159 3159 3159 3159 3160 3160 3160 3161 3162 3162 3162 3162 3162 3163 3163 3163 3163 3163 3163 3162 3162 3162 3162 3162 3162 3162 3162 3161 3161 3161 3160 3160 3160 3160 3160 3160 3160 3160 3160 3160 3160 3160 3160 3160 3160 3162 3163
3142 3142 3141 3140 3139 3138 3137 3136 3136 3135 3136 3137 3137 3137 3138 3139 3140 3140 3141 3142 3143 3144 3145 3147 3147 3148 3148 3149 3150 3151 3152 3153 3154 3154 3155 3157 3157 3158 3158 3159 3159 3159 3160 3159 3159 3159 3160 3161 3161 3161 3161 3161 3162 3162 3162 3162 3162 3161 3161 3161 3161 3161 3161 3161 3160 3160 3160 3160 3159 3159 3159 3158 3158 3158 3158 3158 3158 3158 3158 3157 3157 3157 3158 3160 3160
3141 3141 3140 3139 3138 3137 3136 3135 3135 3134 3135 3136 3136 3137 3138 3138 3139 3140 3140 3141 3142 3142 3143 3145 3146 3146 3146 3147 3148 3150 3151 3151 3152 3152 3154 3155 3156 3157 3157 3158 3159 3159 3159 3159 3159 3158 3158 3160 3160 3160 3160 3160 3160 3161 3161 3161 3161 3160 3160 3160 3160 3160 3160 3160 3159 3159 3159 3159 3158 3158 3157 3157 3157 3156 3156 3156 3156 3156 3156 3155 3155 3155 3155 3157 3157
3139 3139 3138 3137 3136 3135 3135 3134 3134 3133 3134 3135 3135 3136 3137 3137 3138 3139 3140 3140 3141 3141 3142 3143 3145 3146 3146 3146 3147 3149 3150 3150 3151 3152 3153 3154 3155 3155 3156 3157 3158 3158 3158 3158 3158 3158 3158 3158 3159 3159 3159 3159 3159 3160 3160 3160 3160 3160 3160 3159 3159 3159 3159 3159 3159 3158 3158 3158 3157 3157 3156 3156 3156 3155 3155 3155 3155 3155 3154 3154 3154 3153 3153 3153 3154
3138 3137 3137 3136 3135 3134 3133 3133 3132 3132 3133 3133 3134 3135 3136 3136 3137 3138 3138 3139 3140 3140 3140 3141 3143 3145 3145 3145 3146 3149 3149 3149 3150 3152 3152 3153 3154 3154 3155 3156 3157 3157 3157 3157 3157 3157 3157 3158 3158 3158 3158 3158 3159 3159 3159 3159 3159 3159 3159 3159 3159 3158 3158 3158 3158 3158 3157 3157 3156 3156 3156 3155 3155 3155 3155 3155 3154 3154 3153 3153 3152 3152 3151 3151 3152
3137 3136 3136 3135 3134 3133 3132 3131 3131 3132 3132 3132 3133 3134 3135 3136 3136 3137 3137 3138 3139 3140 3139 3140 3142 3143 3144 3144 3146 3148 3148 3148 3149 3151 3151 3152 3153 3153 3154 3155 3155 3155 3155 3156 3156 3157 3157 3157 3157 3158 3158 3158 3158 3158 3158 3158 3158 3158 3158 3158 3158 3158 3158 3157 3157 3157 3156 3156 3156 3155 3155 3155 3154 3154 3154 3153 3153 3153 3152 3152 3151 3151 3150 3150 3150
3136 3135 3135 3134 3133 3132 3131 3130 3130 3131 3131 3132 3132 3133 3134 3135 3136 3136 3137 3138 3138 3139 3139 3140 3142 3143 3144 3144 3145 3146 3148 3148 3149 3150 3151 3151 3151 3152 3153 3154 3155 3155 3155 3155 3156 3156 3156 3157 3157 3157 3157 3158 3158 3157 3157 3157 3157 3157 3157 3157 3157 3157 3157 3157 3157 3156 3156 3155 3155 3155 3154 3154 3154 3154 3153 3153 3153 3152 3152 3151 3151 3150 3150 3149 3149
3135 3134 3133 3132 3132 3131 3130 3130 3130 3130 3130 3131 3132 3132 3134 3135 3136 3136 3137 3138 3138 3139 3140 3141 3141 3142 3144 3144 3144 3145 3147 3148 3149 3150 3150 3151 3151 3152 3153 3154 3154 3154 3154 3155 3155 3155 3156 3156 3157 3157 3157 3157 3157 3157 3157 3157 3157 3157 3157 3157 3157 3157 3157 3156 3156 3156 3155 3155 3154 3154 3154 3153 3153 3153 3153 3152 3152 3152 3151 3151 3150 3149 3149 3149 3148
3133 3133 3132 3131 3131 3130 3129 3129 3129 3129 3129 3130 3131 3132 3133 3134 3135 3136 3136 3137 3138 3139 3140 3140 3141 3142 3143 3144 3144 3145 3146 3147 3148 3149 3150 3151 3151 3152 3153 3153 3153 3154 3154 3154 3155 3155 3156 3156 3156 3156 3157 3157 3157 3157 3158 3157 3157 3157 3157 3157 3157 3156 3156 3156 3156 3155 3155 3154 3154 3154 3153 3153 3153 3152 3152 3152 3151 3151 3150 3150 3149 3149 3148 3148 3147
3132 3131 3131 3130 3129 3129 3129 3128 3129 3129 3129 3129 3130 3132 3133 3134 3135 3136 3136 3137 3138 3139 3139 3140 3141 3141 3143 3144 3144 3145 3146 3146 3147 3148 3149 3150 3151 3152 3153 3153 3154 3154 3155 3154 3154 3155 3155 3156 3156 3156 3156 3156 3157 3157 3157 3157 3157 3157 3157 3156 3156 3156 3156 3155 3155 3155 3155 3154 3154 3153 3153 3152 3152 3152 3151 3151 3150 3150 3149 3149 3148 3148 3147 3147 3147
3131 3130 3129 3129 3128 3128 3128 3128 3128 3128 3129 3129 3130 3132 3133 3134 3135 3136 3136 3137 3138 3139 3139 3140 3140 3141 3142 3144 3144 3146 3146 3147 3147 3148 3149 3150 3151 3152 3153 3153 3154 3154 3154 3154 3154 3154 3155 3155 3156 3156 3156 3156 3156 3156 3156 3157 3157 3157 3156 3156 3156 3155 3155 3155 3155 3155 3154 3154 3153 3153 3152 3152 3151 3151 3150 3150 3150 3149 3148 3148 3147 3147 3146 3146 3145
3129 3129 3128 3128 3127 3127 3127 3127 3127 3128 3128 3129 3130 3131 3132 3133 3134 3135 3136 3137 3138 3139 3139 3140 3140 3141 3142 3143 3144 3145 3146 3147 3148 3149 3149 3150 3151 3151 3152 3152 3153 3153 3153 3153 3154 3154 3154 3155 3155 3156 3156 3156 3156 3156 3156 3156 3156 3156 3155 3155 3155 3155 3155 3155 3154 3154 3154 3153 3153 3153 3152 3151 3151 3150 3150 3149 3149 3148 3147 3147 3146 3145 3145 3144 3143
3128 3128 3127 3127 3126 3126 3126 3127 3127 3127 3128 3129 3130 3132 3132 3133 3134 3135 3136 3137 3138 3138 3139 3140 3140 3141 3142 3143 3143 3144 3145 3146 3147 3148 3149 3150 3150 3151 3151 3152 3152 3152 3152 3153 3154 3154 3154 3154 3154 3155 3155 3155 3155 3155 3154 3154 3154 3154 3154 3154 3154 3154 3154 3154 3153 3153 3153 3152 3152 3152 3151 3151 3150 3149 3149 3148 3147 3147 3146 3145 3145 3144 3143 3142 3142
3127 3127 3126 3126 3126 3126 3126 3126 3127 3127 3128 3129 3130 3131 3133 3133 3134 3135 3136 3137 3137 3138 3139 3139 3140 3141 3142 3143 3143 3144 3145 3146 3147 3148 3149 3150 3151 3151 3152 3152 3152 3152 3152 3153 3153 3154 3154 3154 3154 3153 3153 3153 3153 3153 3153 3153 3153 3153 3153 3153 3153 3153 3153 3153 3153 3152 3152 3151 3151 3150 3150 3149 3149 3148 3148 3147 3146 3145 3145 3144 3143 3142 3142 3141 3140
3126 3126 3126 3126 3125 3126 3126 3126 3127 3127 3128 3129 3130 3131 3133 3134 3135 3135 3136 3137 3138 3138 3139 3140 3141 3142 3142 3143 3144 3145 3146 3147 3148 3149 3150 3150 3151 3151 3151 3152 3152 3152 3152 3152 3153 3153 3153 3153 3153 3152 3152 3152 3152 3152 3152 3152 3152 3152 3152 3152 3152 3151 3152 3152 3152 3151 3150 3150 3149 3149 3148 3148 3147 3147 3146 3146 3145 3144 3143 3142 3142 3141 3140 3139 3138
3126 3125 3125 3125 3125 3126 3126 3127 3127 3127 3128 3129 3130 3132 3133 3134 3135 3136 3137 3137 3138 3139 3140 3141 3141 3142 3143 3144 3145 3146 3146 3147 3148 3149 3149 3149 3149 3150 3151 3151 3152 3152 3151 3151 3152 3152 3151 3151 3151 3151 3151 3150 3150 3151 3151 3151 3151 3150 3150 3150 3150 3149 3149 3149 3149 3149 3148 3148 3147 3146 3146 3146 3145 3145 3144 3144 3143 3142 3142 3141 3140 3139 3138 3137 3136
3125 3125 3125 3125 3126 3126 3127 3127 3128 3128 3129 3130 3131 3132 3133 3134 3136 3137 3138 3138 3139 3140 3140 3141 3142 3143 3143 3144 3145 3146 3147 3148 3148 3149 3149 3148 3149 3150 3150 3151 3151 3151 3151 3149 3149 3150 3150 3150 3150 3150 3150 3149 3148 3149 3149 3149 3150 3149 3149 3149 3148 3147 3147 3146 3146 3146 3146 3146 3145 3144 3143 3143 3142 3142 3141 3141 3140 3139 3139 3138 3138 3137 3136 3135 3134
3124 3124 3124 3125 3126 3126 3127 3128 3129 3129 3130 3130 3131 3133 3134 3135 3136 3137 3138 3139 3140 3140 3141 3141 3142 3143 3143 3144 3145 3145 3146 3147 3147 3148 3148 3148 3148 3149 3149 3150 3150 3151 3150 3149 3148 3148 3149 3149 3148 3148 3149 3148 3147 3147 3147 3148 3148 3147 3147 3147 3146 3145 3145 3144 3143 3143 3143 3143 3143 3142 3141 3140 3139 3139 3138 3137 3137 3136 3135 3135 3134 3134 3133 3132 3131
3123 3123 3124 3124 3125 3126 3127 3128 3129 3130 3130 3131 3132 3134 3135 3136 3137 3138 3138 3139 3140 3140 3141 3141 3142 3143 3143 3144 3144 3145 3145 3146 3146 3147 3148 3147 3148 3148 3148 3148 3149 3150 3149 3149 3148 3147 3147 3147 3147 3147 3147 3146 3146 3146 3146 3146 3146 3146 3145 3145 3144 3143 3143 3142 3141 3140 3140 3140 3140 3140 3139 3138 3137 3136 3135 3135 3134 3133 3132 3131 3131 3130 3130 3129 3127
3121 3122 3123 3124 3125 3126 3127 3128 3129 3130 3131 3132 3133 3135 3136 3137 3138 3138 3139 3139 3140 3140 3141 3141 3142 3142 3142 3143 3144 3144 3144 3145 3145 3146 3147 3146 3147 3147 3146 3146 3147 3148 3148 3147 3147 3147 3147 3146 3145 3145 3145 3145 3145 3144 3144 3144 3144 3144 3144 3144 3142 3141 3141 3140 3139 3138 3137 3136 3135 3135 3135 3135 3134 3133 3132 3132 3131 3130 3129 3128 3127 3127 3126 3125 3123
3120 3121 3122 3123 3124 3125 3126 3128 3129 3130 3131 3132 3134 3135 3136 3137 3138 3139 3139 3139 3140 3140 3140 3140 3141 3141 3141 3141 3142 3142 3143 3143 3144 3145 3146 3146 3146 3146 3146 3144 3145 3146 3146 3145 3145 3145 3145 3145 3144 3143 3143 3143 3143 3143 3142 3142 3142 3141 3141 3141 3140 3139 3139 3138 3137 3136 3134 3133 3132 3131 3130 3130 3129 3129 3128 3128 3127 3126 3125 3124 3123 3123 3122 3121 3119
3119 3120 3121 3122 3123 3124 3126 3127 3128 3130 3131 3132 3134 3135 3137 3137 3138 3139 3139 3139 3139 3139 3139 3139 3139 3140 3139 3139 3139 3141 3141 3142 3143 3143 3143 3144 3144 3144 3144 3144 3143 3144 3144 3144 3143 3143 3143 3143 3143 3142 3141 3141 3141 3140 3140 3141 3140 3139 3138 3138 3138 3137 3137 3136 3135 3133 3131 3130 3129 3129 3127 3126 3124 3124 3124 3123 3122 3121 3120 3120 3119 3119 3117 3116 3115
3118 3119 3120 3121 3122 3123 3124 3126 3127 3128 3130 3132 3133 3135 3136 3137 3138 3138 3139 3139 3138 3138 3138 3138 3138 3138 3137 3136 3138 3140 3140 3140 3141 3141 3141 3141 3141 3142 3143 3142 3142 3142 3142 3142 3141 3141 3142 3142 3141 3141 3140 3139 3138 3138 3138 3138 3137 3137 3136 3135 3135 3134 3133 3133 3132 3130 3128 3127 3126 3126 3125 3123 3120 3120 3120 3119 3117 3116 3115 3114 3114 3114 3113 3111 3110
3116 3117 3118 3119 3120 3121 3123 3124 3125 3127 3128 3130 3132 3133 3135 3136 3137 3137 3137 3137 3137 3136 3136 3136 3135 3134 3134 3135 3136 3137 3137 3137 3138 3138 3138 3139 3139 3139 3140 3140 3140 3140 3140 3140 3139 3140 3140 3140 3140 3139 3139 3138 3136 3136 3136 3136 3135 3134 3133 3132 3131 3130 3129 3128 3129 3128 3125 3123 3122 3122 3123 3121 3116 3115 3116 3115 3113 3111 3109 3108 3108 3107 3107 3106 3105
3116 3117 3117 3117 3119 3120 3121 3122 3122 3123 3125 3126 3128 3131 3133 3134 3134 3135 3135 3135 3134 3134 3133 3133 3132 3130 3131 3132 3134 3134 3135 3135 3135 3135 3135 3136 3136 3136 3137 3137 3137 3137 3137 3137 3137 3137 3138 3138 3138 3138 3137 3136 3135 3134 3134 3134 3133 3131 3130 3128 3127 3125 3124 3123 3123 3124 3122 3119 3117 3117 3119 3119 3114 3112 3112 3112 3109 3107 3105 3103 3102 3101 3100 3100 3099
3115 3116 3116 3117 3118 3119 3120 3120 3120 3121 3122 3123 3125 3128 3130 3130 3131 3132 3132 3132 3132 3131 3130 3130 3128 3127 3127 3129 3129 3130 3132 3132 3131 3132 3132 3133 3133 3133 3134 3134 3134 3134 3135 3135 3135 3135 3135 3135 3135 3135 3135 3133 3132 3132 3132 3130 3129 3127 3126 3125 3123 3122 3121 3120 3119 3119 3119 3116 3113 3111 3113 3114 3112 3108 3108 3107 3105 3103 3101 3099 3098 3096 3095 3094 3093
3115 3115 3116 3116 3116 3117 3118 3119 3119 3119 3120 3121 3123 3125 3126 3126 3127 3128 3128 3128 3128 3128 3128 3126 3123 3122 3124 3125 3126 3126 3127 3128 3129 3129 3129 3130 3130 3130 3130 3131 3131 3132 3132 3132 3132 3133 3133 3132 3132 3132 3132 3131 3129 3129 3129 3127 3125 3124 3123 3122 3121 3119 3117 3116 3115 3115 3114 3113 3109 3106 3106 3107 3107 3104 3103 3103 3101 3099 3097 3096 3094 3092 3090 3089 3088
3113 3114 3114 3114 3114 3115 3116 3116 3116 3116 3117 3119 3121 3123 3123 3123 3123 3123 3124 3124 3123 3124 3123 3119 3117 3119 3121 3123 3123 3123 3123 3124 3125 3125 3126 3127 3127 3126 3126 3127 3128 3128 3129 3129 3130 3130 3130 3130 3130 3129 3129 3129 3127 3126 3125 3124 3122 3121 3120 3119 3118 3116 3115 3114 3113 3112 3110 3109 3106 3103 3101 3101 3101 3099 3098 3097 3096 3095 3093 3091 3090 3088 3086 3085 3084
3109 3110 3111 3112 3112 3113 3114 3114 3113 3113 3115 3116 3119 3120 3120 3120 3120 3119 3119 3119 3118 3118 3116 3114 3115 3117 3118 3119 3119 3120 3120 3121 3121 3121 3122 3123 3123 3123 3124 3125 3125 3126 3126 3127 3128 3128 3128 3127 3127 3126 3126 3125 3124 3122 3121 3120 3119 3117 3116 3115 3114 3113 3111 3110 3110 3108 3106 3105 3102 3099 3096 3095 3095 3093 3092 3092 3091 3090 3089 3087 3085 3083 3082 3080 3079
3105 3106 3107 3108 3109 3109 3110 3110 3110 3110 3112 3113 3115 3116 3116 3116 3115 3115 3115 3115 3113 3112 3111 3112 3113 3113 3113 3113 3114 3114 3115 3116 3116 3116 3118 3119 3119 3120 3121 3121 3122 3122 3124 3125 3125 3125 3125 3124 3124 3123 3122 3121 3120 3119 3118 3116 3115 3114 3113 3112 3111 3109 3108 3106 3105 3103 3101 3100 3098 3094 3091 3090 3089 3088 3087 3086 3085 3084 3083 3082 3080 3078 3077 3075 3074
3103 3103 3103 3104 3104 3105 3106 3106 3106 3106 3107 3109 3110 3112 3112 3112 3111 3111 3111 3110 3109 3108 3108 3109 3109 3108 3108 3108 3108 3108 3109 3111 3111 3112 3113 3114 3115 3116 3117 3117 3118 3120 3121 3122 3122 3122 3121 3121 3120 3119 3119 3118 3117 3115 3114 3112 3111 3111 3110 3109 3108 3106 3103 3101 3099 3097 3096 3094 3092 3089 3086 3084 3084 3082 3081 3080 3080 3079 3078 3077 3075 3073 3071 3070 3068
3101 3101 3100 3100 3100 3100 3101 3101 3101 3101 3102 3103 3104 3106 3107 3108 3107 3107 3107 3106 3105 3104 3104 3105 3104 3104 3105 3104 3103 3104 3105 3107 3107 3108 3109 3111 3112 3113 3113 3114 3116 3117 3118 3119 3118 3118 3117 3117 3117 3116 3115 3114 3113 3111 3110 3109 3109 3108 3106 3105 3103 3101 3098 3096 3093 3091 3090 3088 3086 3084 3081 3079 3078 3077 3075 3074 3074 3074 3073 3071 3069 3068 3066 3064 3063
3097 3097 3097 3097 3096 3096 3096 3096 3097 3098 3098 3098 3100 3101 3102 3103 3103 3103 3103 3103 3101 3100 3100 3100 3100 3100 3101 3100 3100 3101 3102 3103 3103 3104 3106 3107 3108 3110 3110 3111 3113 3115 3115 3115 3115 3114 3114 3113 3113 3112 3111 3111 3109 3108 3107 3106 3105 3104 3102 3101 3099 3097 3094 3092 3090 3088 3086 3084 3083 3080 3077 3075 3074 3072 3070 3068 3067 3068 3068 3066 3064 3062 3060 3058 3056